Location: Les Martinières
(47.2667°N, 1.4410°E)
Time: 03:23:47
(UTC+00:00)

Cosmos 1758 Rocket - Pass Details

Date: 15 May 2026
Orbit: 596 x 627 km, 82.5° (Epoch: 8 June)

Event Time Altitude Azimuth Distance (km) Brightness Sun altitude
Rises 20:15:23 0° 356° (N) 2,896 7.7 -8.0°
Reaches altitude 10° 20:17:42 10° 3° (N) 1,990 6.7 -8.3°
Maximum altitude 20:21:55 43° 75° (ENE) 883 4.1 -8.9°
Enters shadow 20:25:51 11° 146° (SSE) 1,893 5.4 -9.4°
